Location: *
(43.0409°N, 0.1694°E)
Time: 21:08:29
(UTC+00:00)

Cosmos 1633 Rocket - Pass Details

Date: 03 October 2023
Orbit: 604 x 621 km, 82.5° (Epoch: 05 December)

Event Time Altitude Azimuth Distance (km) Brightness Sun altitude
Rises 04:53:44 0° 348° (NNW) 2,899 6.5 -12.6°
Reaches altitude 10° 04:55:58 10° 346° (NNW) 1,991 5.6 -12.2°
Maximum altitude 05:00:20 65° 265° (W) 682 3.0 -11.4°
Drops below altitude 10° 05:04:41 10° 183° (S) 1,983 5.6 -10.6°
Sets 05:06:55 0° 181° (S) 2,885 6.4 -10.2°
